Hourly Data Report for October 02, 2017

All times are specified in Local Standard Time (LST). Add 1 hour to adjust for Daylight Saving Time where and when it is observed.

HAY RIVER A
NORTHWEST TERRITORIES

60°50'23.000" N
115°46'58.000" W
164.90 m
2202401
71935
YHY

Download Data

Hourly Data (October 2017)
Hourly Data Report for October 2, 2017
Temp Definition
°C
Dew Point Temp Definition
°C
Rel Hum Definition
%
Wind Dir Definition
10's deg

Wind Spd Definition
km/h
Visibility Definition
km
Stn Press Definition
kPa
Hmdx Definition


Wind Chill Definition


Weather Definition


TIME
00:00 Legend Double Dagger 3.7 -4.4 56 33 15 24.1 100.82     LegendNANA
01:00 Legend Double Dagger 3.5 -4.1 58 33 14 24.1 100.86     LegendNANA
02:00 Legend Double Dagger 3.7 -3.9 58 33 13 24.1 100.92     Mainly Clear
03:00 Legend Double Dagger 3.3 -3.4 61 32 19 24.1 100.95     LegendNANA
04:00 Legend Double Dagger 3.4 -0.9 74 29 19 24.1 100.96     LegendNANA
05:00 Legend Double Dagger -1.0 -3.0 86 26 13 24.1 101.01   -5 Mainly Clear
06:00 Legend Double Dagger -1.4 -3.1 88 25 15 24.1 101.02   -6 LegendNANA
07:00 Legend Double Dagger -2.6 -4.1 90 24 14 24.1 101.03   -7 LegendNANA
08:00 Legend Double Dagger -1.6 -3.5 87 24 10 24.1 101.04   -5 Mainly Clear
09:00 Legend Double Dagger 2.1 -2.4 72 24 12 24.1 101.02     LegendNANA
10:00 Legend Double Dagger 5.3 -2.1 59 24 14 24.1 101.00     LegendNANA
11:00 Legend Double Dagger 7.5 -1.7 52 26 12 24.1 100.95     Mainly Clear
12:00 Legend Double Dagger 8.5 -1.6 49 27 14 24.1 100.89     LegendNANA
13:00 Legend Double Dagger 10.1 -1.1 46 25 16 24.1 100.83     LegendNANA
14:00 Legend Double Dagger 10.7 -1.6 42 26 14 24.1 100.75     Mainly Clear
15:00 Legend Double Dagger 11.0 -2.3 39 25 20 24.1 100.66     LegendNANA
16:00 Legend Double Dagger 10.8 -2.6 39 24 17 24.1 100.59     LegendNANA
17:00 Legend Double Dagger 9.3 -2.4 44 22 9 24.1 100.52     Mostly Cloudy
18:00 Legend Double Dagger 8.6 -1.5 49 19 10 24.1 100.44     LegendNANA
19:00 Legend Double Dagger 6.3 -1.3 58 18 14 24.1 100.38     LegendNANA
20:00 Legend Double Dagger 5.2 -1.6 62 18 14 24.1 100.27     Mostly Cloudy
21:00 Legend Double Dagger 5.3 -1.9 60 20 15 24.1 100.15     LegendNANA
22:00 Legend Double Dagger 4.1 -2.4 63 19 10 24.1 100.09     LegendNANA
23:00 Legend Double Dagger 4.4 -2.8 60 20 13 24.1 99.97     Mostly Cloudy

Notes on Data Quality.

Legend

  • E = Estimated
  • M = Missing
  • NA = Not Available
  • ‡ = Partner data that is not subject to review by the National Climate Archives
Date modified: